Wind_Speed
21 21 21 20 19 19 20 19 18 18 17 17 17 17 16 16 16 16 16 16 16 16 16 15 16 16 15 15 16 16 16 16 16 16 16 17 17 17 18 19 19 20 20 20
22 22 22 21 21 21 21 21 20 20 20 19 20 19 19 18 18 18 18 18 18 18 18 18 18 18 18 18 17 17 17 17 18 18 18 18 18 19 19 20 20 20 21 21
23 22 23 23 23 23 22 21 22 22 22 21 22 22 21 21 20 20 20 20 19 20 20 20 20 20 20 20 20 19 19 19 19 19 19 19 19 20 20 21 21 21 22 22
25 26 25 25 25 25 24 24 24 25 25 24 23 23 23 22 22 22 22 21 20 21 21 22 22 21 21 21 21 21 21 21 21 21 21 21 21 22 23 23 23 22 23 23
28 27 28 28 27 27 27 27 27 27 26 25 25 26 26 25 25 24 24 23 23 23 23 23 23 23 23 22 22 23 22 22 22 22 23 23 23 23 23 23 23 23 23 24
30 29 28 29 29 28 28 29 28 28 28 27 27 27 28 27 27 27 27 26 26 25 25 24 25 25 24 24 23 23 22 22 23 24 24 24 25 24 24 24 25 25 26 26
30 31 30 31 31 29 30 30 30 29 29 29 29 30 30 29 29 29 29 29 29 28 27 26 26 26 25 25 24 24 24 24 25 26 26 26 26 26 26 26 26 27 27 28
31 31 31 32 32 31 32 32 31 32 31 31 30 30 31 31 31 31 31 31 30 29 28 28 27 27 26 26 26 26 26 26 27 27 27 27 27 27 28 28 28 28 28 29
32 32 32 32 32 32 32 32 33 33 32 31 31 31 32 32 33 32 31 31 30 30 30 29 29 28 28 27 27 28 28 29 29 28 29 29 29 29 29 29 29 29 30 31
32 32 32 32 32 32 32 33 32 32 32 31 31 32 32 33 34 33 32 31 31 30 30 31 30 29 29 28 28 29 30 30 30 30 30 30 30 30 31 31 31 32 32 33
33 33 32 32 32 32 32 32 32 32 32 32 32 32 33 34 34 32 31 31 31 31 31 31 31 31 31 30 29 30 30 31 32 31 32 32 32 32 32 32 32 32 33 33
31 31 32 31 31 32 31 31 32 32 32 32 32 32 33 33 33 32 30 30 31 31 31 31 31 32 32 32 32 32 32 32 33 33 33 33 34 34 34 34 33 32 32 33
31 31 31 31 31 31 32 32 31 31 32 31 32 32 32 32 31 32 32 31 32 32 32 32 32 32 32 33 33 33 33 33 33 33 34 34 34 34 35 35 35 34 34 34
30 30 31 31 31 32 32 32 32 32 32 32 31 31 31 32 31 31 31 32 33 33 33 33 33 33 33 33 34 34 33 33 34 35 35 35 35 36 36 36 36 36 36 36
30 30 30 31 31 31 31 31 31 31 32 32 31 31 32 31 31 31 32 33 33 34 34 34 34 33 33 33 33 34 34 34 35 36 36 36 36 37 37 37 37 37 38 38
28 29 29 30 29 29 30 31 30 30 30 31 31 31 32 32 32 32 32 33 34 34 33 34 34 33 33 33 34 34 35 36 36 36 36 36 36 37 37 37 38 38 39 38
28 28 28 29 29 30 30 31 30 30 31 31 32 33 32 32 33 33 34 34 34 34 34 34 34 34 34 34 35 35 36 37 37 37 37 37 37 37 38 38 38 39 39 38
27 27 27 28 28 29 29 29 30 31 32 33 33 32 32 32 33 34 34 35 34 34 34 34 35 35 35 35 34 35 35 36 36 36 36 37 37 38 39 40 39 38 38 37
25 25 26 27 28 28 28 28 29 30 32 33 33 33 32 32 32 33 33 34 34 34 34 35 35 37 37 36 36 36 35 36 37 37 37 38 38 38 38 38 37 37 37 38
24 24 24 25 27 27 28 28 28 29 30 30 31 31 31 31 32 33 33 33 33 34 34 35 36 37 37 37 37 37 37 38 39 38 37 37 37 37 37 37 37 37 37 37
21 21 22 23 24 25 26 26 27 28 29 28 29 29 29 29 31 32 33 33 33 33 33 34 34 34 35 35 36 37 37 37 37 37 37 37 37 37 37 36 36 36 36 37
19 19 20 21 21 22 23 24 25 26 26 27 27 28 28 29 30 30 30 31 31 32 33 33 33 32 32 33 34 34 34 35 35 35 35 35 36 36 36 36 36 36 37 37
18 18 18 18 19 21 22 22 23 24 24 25 26 27 27 27 27 28 28 28 29 29 30 30 31 31 31 32 32 32 32 33 32 33 34 34 35 36 36 36 36 36 36 36
17 18 18 18 18 19 20 21 21 22 22 23 24 25 25 25 25 26 26 26 27 28 28 29 29 30 31 32 32 32 32 32 32 32 33 33 34 35 35 34 34 35 35 35
17 17 17 17 17 17 18 19 19 20 21 21 22 23 23 24 24 25 26 26 26 27 27 27 28 28 29 30 31 32 32 32 32 31 32 32 33 33 33 33 33 33 34 34
16 17 16 16 16 16 17 17 18 19 20 21 22 22 23 23 24 25 25 26 26 27 27 27 28 28 29 29 30 31 31 31 31 32 32 32 32 33 33 32 32 32 33 33
15 16 16 17 17 17 17 18 18 19 20 20 21 21 22 23 24 24 24 25 25 26 26 27 27 28 29 29 30 30 31 31 31 31 31 31 30 30 30 31 31 32 32 32
Wind_Direction
234 237 239 242 243 244 244 245 246 248 252 255 259 262 264 267 272 277 279 281 284 287 287 284 284 286 287 291 292 293 291 287 286 287 287 285 284 283 285 286 286 287 288 290
241 240 240 243 245 244 246 248 249 250 253 255 260 263 265 265 268 273 277 279 281 284 286 285 283 282 283 286 290 292 291 290 288 286 287 288 286 285 285 286 287 287 288 289
243 242 243 244 244 244 245 248 250 252 255 257 261 264 265 266 267 269 273 276 278 280 282 284 285 285 283 284 286 287 287 287 287 286 285 287 286 286 286 286 286 288 288 289
245 245 245 246 245 246 247 249 251 254 256 259 263 264 265 266 267 268 269 272 274 276 278 280 283 285 286 285 284 285 285 285 284 284 285 285 285 285 286 286 288 289 289 289
246 248 251 250 249 249 250 251 252 254 256 258 262 264 264 265 266 267 267 270 272 274 276 278 280 283 283 284 284 285 284 285 285 283 283 284 285 286 286 287 288 288 289 288
247 247 251 253 253 253 253 254 253 254 257 259 260 261 263 264 264 265 267 269 270 271 274 274 277 280 282 282 284 285 286 287 286 285 282 283 284 286 287 287 287 287 287 288
250 250 252 253 255 255 254 254 255 256 258 260 259 259 261 263 263 264 266 267 270 271 271 273 275 278 278 279 282 284 285 286 286 286 283 280 281 283 285 286 287 287 288 288
250 252 253 254 257 257 257 257 258 260 260 260 260 259 259 261 261 263 265 267 268 270 271 272 274 276 276 277 279 280 282 283 285 286 285 283 282 282 283 285 287 287 288 289
250 253 254 256 258 259 259 259 259 260 261 260 259 258 258 260 261 263 264 265 267 269 269 270 272 273 273 274 276 277 278 280 282 283 284 283 282 282 283 285 286 287 289 289
251 253 255 257 258 259 259 260 259 259 260 261 261 260 259 260 261 261 261 263 265 267 269 270 271 271 270 272 274 275 277 278 279 280 281 282 281 281 283 285 287 288 289 290
253 255 257 258 257 257 258 258 257 257 259 262 261 260 261 262 261 260 261 264 266 267 268 270 272 272 272 274 276 276 277 277 277 279 280 281 282 281 284 286 287 289 290 290
251 253 254 255 255 255 256 257 257 257 258 260 261 262 263 264 262 263 263 265 266 267 267 268 270 270 271 273 274 276 275 276 277 277 279 281 283 284 286 287 289 289 289 290
251 251 253 255 256 256 256 257 258 259 260 261 263 265 265 265 265 265 265 265 265 266 268 269 269 270 272 273 274 274 275 276 277 279 281 282 284 284 285 286 287 288 289 290
252 253 254 255 256 257 259 260 260 260 260 261 263 263 262 263 263 264 264 264 265 266 268 270 271 271 272 274 274 274 275 276 277 279 280 281 281 282 283 284 286 288 289 289
254 255 257 257 257 258 259 261 261 260 261 260 263 263 262 262 262 263 264 265 266 267 268 270 271 272 273 273 273 274 275 276 277 279 280 281 281 282 283 284 286 288 289 289
257 258 258 259 258 257 258 260 261 261 261 262 262 263 263 264 264 264 265 266 266 266 267 269 271 272 273 273 273 273 275 277 278 280 282 282 283 285 284 285 287 288 289 289
257 258 258 258 258 258 258 259 260 262 263 263 264 264 264 264 266 267 267 267 266 266 267 269 270 271 272 273 274 274 275 276 277 278 280 282 283 284 285 286 287 288 289 290
259 259 258 257 257 257 258 259 260 260 262 264 264 265 267 267 268 269 269 270 270 269 269 269 269 271 272 273 274 274 275 275 277 281 283 284 284 285 286 287 287 288 289 291
258 258 257 257 257 257 257 259 260 262 263 265 264 265 267 268 269 270 270 270 271 271 272 272 272 273 273 274 274 274 274 276 278 281 284 285 285 286 288 287 287 288 289 291
258 260 259 258 257 257 258 260 262 264 266 267 265 265 266 268 269 269 270 271 273 274 274 275 276 276 274 273 274 274 274 276 278 280 282 284 286 287 288 288 287 288 290 292
259 260 260 259 259 259 260 261 262 264 266 267 268 269 270 271 271 272 273 273 274 274 275 276 276 276 274 273 274 276 276 277 277 278 281 283 284 285 287 288 288 289 290 291
260 261 261 261 260 261 261 262 263 264 265 266 268 270 273 276 275 275 275 275 274 274 275 275 275 276 275 276 276 276 276 277 278 280 282 283 284 286 287 288 287 288 289 290
258 261 263 264 263 263 263 264 264 264 265 266 268 270 273 275 276 277 277 277 276 276 275 274 274 276 276 277 277 277 278 279 279 281 282 283 284 285 287 288 289 288 289 291
261 261 263 264 266 267 268 268 267 265 267 269 269 271 273 275 276 278 279 279 278 278 277 277 278 278 276 277 279 280 282 281 281 282 284 284 285 286 287 288 290 290 291 292
262 264 266 267 268 270 273 272 271 271 271 271 273 275 276 277 279 280 281 281 281 280 280 280 279 280 280 280 281 281 282 282 283 283 285 287 288 288 288 288 290 291 292 292
265 265 268 272 274 275 276 276 275 275 276 278 279 280 280 281 282 283 283 283 282 282 281 281 280 280 281 282 283 284 284 285 286 287 288 289 289 290 290 291 291 291 291 292
265 267 268 272 276 277 278 280 281 281 282 282 283 284 285 285 285 286 286 286 285 285 284 283 282 281 281 282 283 284 286 288 289 289 290 291 291 290 291 293 292 291 291 292
Height
5887 5889 5892 5894 5896 5897 5899 5901 5903 5904 5905 5905 5905 5906 5906 5906 5906 5905 5905 5904 5903 5903 5901 5900 5899 5898 5898 5897 5895 5894 5893 5892 5890 5889 5888 5887 5885 5884 5883 5881 5880 5879 5878 5876
5883 5884 5886 5888 5890 5892 5894 5895 5897 5898 5900 5900 5900 5900 5901 5901 5901 5901 5900 5900 5899 5898 5897 5896 5895 5894 5893 5892 5891 5890 5889 5887 5886 5884 5883 5882 5881 5879 5878 5877 5875 5874 5872 5871
5878 5880 5881 5883 5885 5886 5888 5889 5891 5892 5894 5894 5894 5894 5895 5895 5896 5895 5895 5894 5893 5893 5892 5891 5890 5889 5888 5887 5886 5885 5883 5882 5881 5879 5878 5877 5876 5874 5873 5871 5870 5868 5867 5865
5872 5874 5876 5879 5879 5880 5882 5883 5885 5885 5886 5887 5888 5888 5889 5889 5889 5889 5889 5888 5888 5887 5886 5885 5884 5883 5882 5881 5880 5879 5878 5877 5876 5874 5873 5872 5870 5869 5867 5866 5864 5862 5861 5859
5865 5867 5869 5871 5872 5873 5875 5877 5877 5878 5879 5880 5881 5882 5882 5882 5883 5883 5882 5882 5882 5881 5880 5879 5878 5877 5876 5875 5874 5873 5872 5871 5870 5868 5867 5865 5864 5862 5861 5859 5858 5856 5854 5853
5857 5860 5862 5864 5864 5865 5868 5869 5870 5871 5872 5873 5874 5875 5875 5875 5875 5875 5875 5875 5875 5874 5873 5872 5871 5870 5870 5869 5868 5867 5866 5865 5863 5862 5861 5859 5857 5856 5854 5853 5851 5849 5847 5846
5849 5851 5854 5855 5855 5858 5861 5861 5861 5862 5864 5865 5865 5866 5866 5866 5866 5867 5867 5867 5867 5866 5866 5865 5864 5863 5863 5862 5862 5861 5860 5858 5857 5855 5854 5852 5850 5849 5848 5846 5844 5842 5840 5838
5841 5843 5847 5846 5847 5850 5851 5852 5853 5853 5854 5855 5856 5856 5857 5857 5857 5858 5858 5858 5858 5858 5858 5858 5857 5856 5855 5855 5855 5854 5852 5851 5850 5848 5847 5845 5843 5842 5840 5839 5837 5835 5833 5831
5833 5836 5836 5837 5838 5839 5841 5842 5843 5844 5845 5846 5846 5847 5847 5848 5848 5849 5849 5849 5850 5850 5850 5849 5849 5848 5848 5847 5846 5846 5845 5844 5842 5841 5839 5837 5836 5834 5833 5831 5829 5827 5825 5823
5823 5825 5827 5828 5829 5830 5831 5832 5833 5834 5835 5836 5837 5837 5838 5838 5838 5838 5839 5840 5840 5841 5841 5840 5840 5839 5839 5838 5837 5837 5836 5835 5834 5832 5831 5829 5828 5826 5825 5823 5821 5819 5817 5815
5814 5816 5817 5818 5819 5820 5821 5823 5824 5825 5826 5826 5827 5827 5828 5827 5827 5827 5828 5830 5831 5831 5831 5831 5831 5830 5830 5829 5829 5828 5827 5826 5824 5823 5822 5820 5819 5817 5815 5814 5812 5810 5808 5805
5805 5806 5808 5809 5810 5811 5812 5813 5814 5815 5816 5817 5817 5817 5818 5817 5818 5818 5819 5821 5821 5822 5822 5822 5821 5821 5821 5820 5819 5819 5817 5816 5815 5814 5812 5811 5809 5808 5806 5805 5803 5800 5798 5796
5796 5797 5798 5800 5801 5802 5803 5804 5805 5805 5806 5807 5807 5807 5808 5808 5808 5809 5810 5811 5812 5812 5812 5812 5811 5811 5810 5810 5809 5808 5807 5806 5805 5804 5803 5801 5800 5798 5797 5795 5793 5791 5789 5786
5786 5788 5789 5791 5792 5793 5794 5794 5795 5796 5797 5798 5798 5798 5798 5799 5800 5800 5801 5801 5802 5802 5802 5802 5801 5801 5801 5800 5799 5798 5798 5797 5795 5794 5793 5791 5789 5788 5786 5785 5783 5780 5778 5776
5778 5779 5780 5782 5783 5784 5785 5785 5786 5787 5788 5788 5788 5789 5789 5790 5791 5791 5792 5792 5792 5792 5792 5792 5791 5791 5790 5790 5789 5788 5788 5787 5785 5784 5782 5780 5779 5777 5776 5774 5772 5770 5767 5765
5769 5770 5771 5773 5774 5775 5776 5776 5777 5778 5779 5779 5779 5779 5780 5781 5781 5782 5782 5782 5782 5782 5782 5781 5781 5781 5780 5779 5779 5778 5777 5776 5775 5773 5771 5770 5768 5766 5764 5763 5761 5758 5756 5754
5761 5762 5763 5764 5765 5766 5767 5768 5769 5769 5769 5770 5770 5771 5771 5771 5771 5772 5772 5771 5771 5771 5771 5771 5770 5770 5769 5769 5768 5767 5766 5765 5764 5762 5761 5759 5757 5756 5754 5752 5750 5747 5745 5743
5752 5753 5754 5755 5756 5757 5758 5759 5760 5760 5760 5760 5761 5761 5762 5762 5761 5761 5761 5761 5760 5761 5760 5760 5760 5759 5759 5758 5757 5756 5755 5754 5753 5751 5749 5748 5746 5744 5742 5740 5738 5736 5734 5731
5744 5744 5745 5746 5747 5748 5749 5750 5751 5751 5751 5751 5751 5751 5752 5752 5752 5752 5751 5751 5750 5750 5750 5749 5749 5748 5748 5747 5747 5745 5744 5743 5742 5741 5739 5737 5735 5733 5731 5729 5727 5725 5722 5720
5736 5736 5737 5737 5738 5739 5740 5741 5742 5742 5742 5742 5742 5742 5742 5742 5742 5742 5741 5741 5741 5740 5740 5739 5738 5738 5737 5736 5736 5735 5734 5733 5732 5730 5728 5726 5724 5722 5720 5718 5716 5713 5711 5708
5729 5729 5729 5729 5730 5731 5732 5733 5733 5734 5734 5734 5734 5733 5733 5733 5733 5732 5731 5731 5731 5730 5730 5729 5728 5727 5727 5726 5725 5724 5723 5722 5721 5719 5717 5715 5713 5711 5709 5707 5704 5702 5699 5697
5722 5722 5723 5723 5723 5724 5724 5724 5725 5725 5725 5725 5725 5725 5725 5724 5724 5723 5722 5722 5721 5720 5720 5719 5718 5717 5716 5715 5714 5713 5712 5710 5709 5707 5705 5704 5702 5700 5698 5696 5693 5691 5688 5686
5716 5717 5717 5717 5717 5717 5717 5717 5717 5717 5718 5718 5718 5717 5717 5716 5715 5714 5713 5712 5711 5711 5710 5709 5708 5708 5707 5705 5704 5703 5701 5699 5697 5696 5694 5692 5691 5689 5687 5684 5682 5679 5677 5674
5711 5711 5711 5711 5711 5711 5710 5710 5710 5710 5710 5710 5710 5709 5709 5708 5707 5706 5705 5704 5703 5702 5701 5700 5699 5698 5697 5695 5694 5693 5691 5689 5686 5685 5684 5681 5679 5677 5675 5673 5671 5668 5666 5663
5705 5705 5706 5706 5705 5705 5704 5704 5704 5704 5704 5703 5703 5702 5701 5700 5699 5698 5697 5695 5694 5693 5692 5691 5690 5688 5687 5686 5684 5683 5681 5679 5677 5675 5673 5671 5669 5667 5665 5662 5660 5657 5655 5652
5700 5700 5701 5700 5700 5700 5699 5699 5698 5698 5697 5696 5695 5694 5693 5692 5691 5689 5688 5687 5686 5684 5683 5682 5681 5679 5678 5676 5674 5672 5671 5669 5667 5665 5663 5661 5659 5656 5654 5652 5649 5646 5644 5641
5695 5695 5695 5695 5695 5694 5694 5693 5692 5692 5691 5690 5688 5687 5686 5684 5683 5682 5680 5678 5676 5675 5674 5672 5671 5670 5668 5666 5665 5663 5661 5659 5657 5655 5653 5651 5648 5646 5643 5641 5639 5636 5633 5630